Showing default

OSCAR 3, 1293

Orbit data source: Space-Track

OSCAR 3, 1293 is a payload satellite owned by OSCAR (US) in LEO that was launched on Tue, 09 Mar 1965 UTC via a THOR SLV-2 AGENA D launch vehicle from the Air Force Western Test Range (AFWTR). Payload-class satellites include a variety of spacecraft equipped with specific instruments for various scientific and technological missions. These include communications satellites like Starlink; space stations such as the ISS; scientific satellites like the Hubble; Earth observation satellites from companies like Planet Labs, Umbra, and HawkEye 360; GPS; miniature CubeSats for education and research; and military/defense satellites.

Loading next visibility...
Identifier
1293, 1965-016F
Orbit
LEO
Country
Flag of USUS
Related business
Manufacturer
OSCAR
Mission
Non-operational Amateur Communications
Bus & Motor
OSCAR, Unknown motor
Mass
15 kg wet, 15 kg dry
Launch date (UTC)
1965-03-09 (61 years ago)
Launch vehicle
THOR SLV-2 AGENA D
Launch site
Air Force Western Test Range (AFWTR)
Object type
Payload
Rocket body
Debris
Shape & HBR
Box + 4 Ant, 0.7 m
Radar Cross Section
0.259 m², Medium (>0.1 m² and < 1m²)

Expand to show TLE details & history
Last TLE update: 1 day ago

TLE from 1 day ago
0 OSCAR 3
1 01293U 65016F   25260.43096436  .00000525  00000-0  33882-3 0  9992
2 01293  70.0717 272.3342 0015758 163.3540 196.8093 14.08192197 93684
Epoch: 2025-09-17T10:20Z
TLE epoch observation values (Epoch: 2025-09-17T10:20:35.32Z)
Latitude
-0.00005°
Longitude
120.58°
Altitude
878.825 km
Speed
7.408 km/s
True Right ascension
18h 09m 20s
True Declination
0° 00' 00"
Sunlit
Object was in daylight at epoch
Visualization orbit readout
Latitude
Unknown
Longitude
Unknown
Altitude
Unknown
Speed
Unknown
Apparent Right ascension
Unknown
Apparent Declination
Unknown
Sunlit
N/A
Visualization observer readout
Local Sidereal Time
13:50:21
Azimuth
Unknown
Elevation
Unknown
Doppler factor
Unknown
Orbital elements
Apogee altitude
875 km
Perigee altitude
852.177 km
Semi-major axis
7,241.726 km
Eccentricity
0.00158
Inclination
70.0717°
RAAN
272.3342°
Arg. of periapsis
163.354°
True anomaly
196.75718°
Mean anomaly
196.8093°
Eccentric anomaly
196.78323°
Mean motion
3.52192 °/min
Orbital period
102.22 mins
BSTAR
0.00033882
Loading maneuver chart data...
Computing Atmospheric mass density...
Loading historical data...
Loading historical data...
Loading historical data...
Loading historical data...
Loading historical data...
Loading historical data...
Loading historical data...

Documentation

Showing up to 5 results
|